Regional Weather Roundup
Issued by NWS

Home | Current Version | Previous Version | Text Only | Print | Product List | Glossary On
Versions: 1 2 3 4 5 6 7 8 9 10 11 12 13 14 15 16 17 18 19 20 21 22 23 24 25 26 27 28 29 30 31 32 33 34 35 36 37 38 39 40 41 42 43 44 45 46 47 48 49 50
000
ASUS43 KDTX 021601
RWRMI
MICHIGAN HOURLY REGIONAL WEATHER ROUNDUP
NATIONAL WEATHER SERVICE DETROIT/PONTIAC MI
1200 PM EDT TUE JUN 02 2015

NOTE: "FAIR" INDICATES FEW OR NO CLOUDS BELOW 12,000 FEET WITH NO
SIGNIFICANT WEATHER AND/OR OBSTRUCTION TO VISIBILITY.

MIZ047>049-052>055-059>063-066>070-074>076-081>083-021700-
SOUTHEAST LOWER MICHIGAN

CITY           SKY/WX    TMP DP  RH WIND       PRES   REMARKS
ADRIAN         MOSUNNY   64  50  60 E13       30.21S
ALMA           SUNNY     63  43  48 NE3       30.24S
ANN ARBOR      MOSUNNY   66  48  52 SE9       30.21R
BAD AXE        SUNNY     64  39  39 NE7       30.23S
CARO           SUNNY     65  44  47 N6        30.22F
DETROIT CITY   SUNNY     66  45  46 E13       30.21S
DETROIT        MOSUNNY   67  47  48 N10       30.21S
FLINT          SUNNY     67  45  45 VRB3      30.22F
GROSSE ILE     SUNNY     64  52  63 NE6       30.20F
HILLSDALE      MOSUNNY   64  48  55 E6        30.21R
HOWELL         SUNNY     65  46  50 E6        30.21F

CITY           SKY/WX    TMP DP  RH WIND       PRES   REMARKS
JACKSON          N/A     65  49  56 E9        30.21S
LAMBERTVILLE   SUNNY     63  50  63 NE6       30.21S
LANSING        SUNNY     63  46  54 NE8       30.23F
LAPEER         FAIR      65  41  41 NE6       30.22S
MASON          SUNNY     62  49  62 N6        30.22F
MONROE         SUNNY     64  50  59 E5        30.20S
MT. CLEMENS    MOSUNNY   64  49  56 NE7       30.19S
PONTIAC        MOSUNNY   65  43  44 E10       30.21R
PORT HOPE        N/A     54  45  71 CALM      30.23S
PORT HURON     SUNNY     64  43  45 NE9       30.22S
TRI CITIES     SUNNY     65  44  46 NE5       30.24F
MIDLAND        FAIR      64  41  42 CALM      30.24S
TROY           SUNNY     67  42  40 E9        30.22S
SAGINAW HB     SUNNY     64  39  39 E3        30.23S
$$
MIZ043>046-050>051-056>058-064>065-071>073-077>080-021700-
SOUTHWEST LOWER MICHIGAN

CITY           SKY/WX    TMP DP  RH WIND       PRES   REMARKS
BATTLE CREEK   SUNNY     65  46  50 VRB3      30.22S
BENTON HARBOR  SUNNY     61  48  62 VRB5      30.20F
BIG RAPIDS     SUNNY     62  33  34 CALM      30.22F
COLDWATER      SUNNY     64  48  56 NE5       30.20S
FREMONT        FAIR      63  32  31 E5        30.22F
HOLLAND        SUNNY     64  41  42 VRB6      30.23S
GRAND RAPIDS   SUNNY     63  43  48 CALM      30.22F
IONIA          FAIR      63  44  49 E7        30.22S
KALAMAZOO      SUNNY     66  46  48 E7        30.22S
LUDINGTON      SUNNY     66  37  35 SW9       30.21F
MARSHALL       SUNNY     65  46  51 E5        30.21S
MOUNT PLEASANT SUNNY     63  41  44 SE6       30.23S
MUSKEGON       MOSUNNY   64  44  48 SW7       30.21F
SOUTH HAVEN    SUNNY     65  35  33 S3        30.21S
$$
MIZ016>042-021700-
NORTHERN LOWER MICHIGAN

CITY           SKY/WX    TMP DP  RH WIND       PRES   REMARKS
ALPENA         SUNNY     66  35  31 S7        30.22F
BEAVER ISLAND  SUNNY     63  28  26 CALM      30.22S
BELLAIRE       SUNNY     65  29  25 CALM      30.21F
CADILLAC       SUNNY     64  30  28 CALM      30.20F
CHARLEVOIX     SUNNY     60  40  46 N6        30.25S
FRANKFORT      MOSUNNY   65  20  17 W7        30.20F
GRAYLING       SUNNY     64  34  32 CALM      30.21F
HARBOR SPRINGS SUNNY     64  35  33 W6        30.21F
HOUGHTON LAKE  SUNNY     63  36  36 W7        30.22F
MANISTEE       SUNNY     64  34  32 CALM      30.22S
OSCODA         SUNNY     64  36  35 E6        30.23F
PELLSTON       SUNNY     66  33  29 VRB5      30.22F
ROGERS CITY    SUNNY     60  38  44 E7        30.23F
TRAVERSE CITY  PTSUNNY   66  36  32 NE7       30.20F
$$
MIZ007>008-015-021700-
EASTERN UPPER MICHIGAN

CITY           SKY/WX    TMP DP  RH WIND       PRES   REMARKS
KINROSS        SUNNY     66  30  26 SE10G17   30.21S
MACKINAC ISLAN SUNNY     62  32  32 SE3       30.22S
NEWBERRY       SUNNY     63  37  37 S12       30.20F
S. S. MARIE    SUNNY     67  38  34 SW8       30.20F
$$
MIZ004>006-011>014-085-021700-
CENTRAL UPPER MICHIGAN

CITY           SKY/WX    TMP DP  RH WIND       PRES   REMARKS
MANISTIQUE     MOSUNNY   57  36  46 S10       30.22S
ESCANABA       SUNNY     57  45  62 SE10      30.19F
MENOMINEE      MOSUNNY   59  43  55 E8        30.18F
SAWYER-GWINN   SUNNY     64  32  29 MISG      30.16F
$$
MIZ001>003-009>011-084-021700-
WESTERN UPPER MICHIGAN

CITY           SKY/WX    TMP DP  RH WIND       PRES   REMARKS
IRON MOUNTAIN  MOSUNNY   66  32  28 S9        30.15F
HOUGHTON       MOSUNNY   64  41  42 VRB7      30.10F
COPPER HARBOR    N/A     65  27  23 SW9       30.10F
IRONWOOD       PTSUNNY   64  39  39 S12G18    30.06F
$$

ABBREVIATIONS USED IN REMARKS
   TC - TEMPERATURE IN CELSIUS
  WCI - WIND CHILL INDEX
   HX - HEAT INDEX
  VSB - VISIBILITY



USA.gov is the U.S. government's official web portal to all federal, state and local government web resources and services.